Showing default

EUTE 28A (EB 1), 26719

Orbit data source: Space-Track

EUTE 28A (EB 1), 26719 is a payload satellite owned by Eutelsat (FR) in GEO that was launched on Thu, 08 Mar 2001 UTC via an ARIANE 5G launch vehicle from the French Guiana (FRGUI). Payload-class satellites include a variety of spacecraft equipped with specific instruments for various scientific and technological missions. These include communications satellites like Starlink; space stations such as the ISS; scientific satellites like the Hubble; Earth observation satellites from companies like Planet Labs, Umbra, and HawkEye 360; GPS; miniature CubeSats for education and research; and military/defense satellites.

Not visible in the next 10 days
Identifier
26719, 2001-011A
Orbit
GEO
Country
Flag of UnknownUnknown / EUTE
Related business
Manufacturer
Alcatel/Cannes
Mission
Non-operational Commercial Communications
Bus & Motor
SPACEBUS 3000B2, S400
Mass
3,050 kg wet, ~1,300 kg dry
Launch date (UTC)
2001-03-08 (25 years ago)
Launch vehicle
ARIANE 5G
Launch site
French Guiana (FRGUI)
Object type
Payload
Rocket body
Debris
Shape & HBR
Box + 2 Pan, 14.5 m
Radar Cross Section
27.172 m², Large (>1 m²)

Expand to show TLE details & history
Last TLE update: 14 hours ago

TLE from 14 hours ago
0 EUTE 28A (EB 1)
1 26719U 01011A   26062.96700332 -.00000190  00000-0  00000+0 0  9994
2 26719   7.1177  68.5491 0008812 280.9033 281.6642  0.98792273 91340
Epoch: 2026-03-03T23:12Z
TLE epoch observation values (Epoch: 2026-03-03T23:12:29.086Z)
Latitude
-2.69451°
Longitude
121.02807°
Altitude
36,198.773 km
Speed
3.06 km/s
True Right ascension
18h 03m 33s
True Declination
-2° 41' 31"
Sunlit
Object was in daylight at epoch
Visualization orbit readout
Latitude
Unknown
Longitude
Unknown
Altitude
Unknown
Speed
Unknown
Apparent Right ascension
Unknown
Apparent Declination
Unknown
Sunlit
N/A
Visualization observer readout
Local Sidereal Time
16:33:30
Azimuth
Unknown
Elevation
Unknown
Doppler factor
Unknown
Orbital elements
Apogee altitude
36,245.087 km
Perigee altitude
36,170.034 km
Semi-major axis
42,585.697 km
Eccentricity
0.00088
Inclination
7.1177°
RAAN
68.5491°
Arg. of periapsis
280.9033°
True anomaly
281.56529°
Mean anomaly
281.6642°
Eccentric anomaly
281.61474°
Mean motion
0.24697 °/min
Orbital period
1,457.66 mins
BSTAR
0
Loading maneuver chart data...
Computing Atmospheric mass density...
Loading historical data...
Loading historical data...
Loading historical data...
Loading historical data...
Loading historical data...
Loading historical data...
Loading historical data...
Other satellites on launch #11 in the year 2001 (2001-03-08 UTC)

Documentation

Showing up to 5 results
|